This demonstration page uses our WeatherBlox Daily Observations layout. Learn more.

Left ArrowRight Arrow

38.20091, -84.87328

Hourly Observations for July 4, 2020

Temp ( °F °C ) Dew Point ( °F °C ) Humidity (%) Winds ( mph kmh ) Pressure ( in mb ) Visibility ( mi km ) Precip ( " mm )
12:53 am 00:53 Clear 71 21.7 67 19.4 87 87 Calm 29.97 1015 10 16 0.00 0.00
1:53 am 01:53 Clear 72 22.2 68 20 87 87 Calm 29.96 1015 9 14 0.00 0.00
2:53 am 02:53 Clear 70 21.1 66 18.9 87 87 Calm 29.94 1014 9 14 0.00 0.00
3:53 am 03:53 Clear 69 20.6 65 18.3 87 87 Calm 29.93 1014 8 13 0.00 0.00
4:53 am 04:53 Clear with Mist and Fog 68 20 65 18.3 90 90 Calm 29.93 1014 5 8 0.00 0.00
5:12 am 05:12 Clear with Mist and Fog 67 19.4 64 17.8 91 91 Calm 29.94 1014 2 3 0.00 0.00
5:20 am 05:20 Clear with Mist and Fog 69 20.6 65 18.3 87 87 NW 3 6 29.95 1014 3 5 0.00 0.00
5:53 am 05:53 Clear 68 20 64 17.8 87 87 Calm 29.94 1014 7 11 0.00 0.00
6:53 am 06:53 Sunny with Mist and Fog 68 20 65 18.3 90 90 Calm 29.96 1014 6 10 0.00 0.00
7:53 am 07:53 Sunny 72 22.2 68 20 87 87 Calm 29.97 1015 8 13 0.00 0.00
8:53 am 08:53 Sunny 79 26.1 69 20.6 72 72 E 3 6 29.97 1015 10 16 0.00 0.00
9:53 am 09:53 Sunny 83 28.3 68 20 61 61 Calm 29.97 1015 10 16 0.00 0.00
10:53 am 10:53 Sunny 87 30.6 67 19.4 51 51 Calm 29.97 1015 10 16 0.00 0.00
11:53 am 11:53 Sunny 90 32.2 64 17.8 42 42 Calm 29.97 1015 10 16 0.00 0.00
12:53 pm 12:53 Partly Cloudy 90 32.2 64 17.8 42 42 SE 8 13 29.96 1015 10 16 0.00 0.00
1:53 pm 13:53 Partly Cloudy 92 33.3 65 18.3 41 41 NNE 8 13 29.96 1014 10 16 0.00 0.00
2:53 pm 14:53 Sunny 91 32.8 65 18.3 42 42 E 8 13 29.94 1014 10 16 0.00 0.00
3:53 pm 15:53 Mostly Cloudy 91 32.8 64 17.8 41 41 undefined N/A 29.93 1014 10 16 0.00 0.00
4:53 pm 16:53 Partly Cloudy 93 33.9 65 18.3 40 40 undefined N/A 29.91 1013 10 16 0.00 0.00
5:53 pm 17:53 Mostly Cloudy 91 32.8 65 18.3 42 42 E 6 9 29.91 1013 10 16 0.00 0.00
6:53 pm 18:53 Partly Cloudy 92 33.3 65 18.3 41 41 ENE 7 11 29.89 1012 10 16 0.00 0.00
7:53 pm 19:53 Sunny 89 31.7 65 18.3 45 45 ENE 7 11 29.89 1012 10 16 0.00 0.00
8:53 pm 20:53 Sunny 85 29.4 65 18.3 51 51 ENE 3 6 29.90 1012 10 16 0.00 0.00
9:53 pm 21:53 Clear 78 25.6 67 19.4 69 69 Calm 29.91 1013 10 16 0.00 0.00
10:53 pm 22:53 Clear 74 23.3 67 19.4 79 79 Calm 29.93 1014 8 13 0.00 0.00
11:53 pm 23:53 Clear 74 23.3 67 19.4 79 79 Calm 29.93 1014 9 14 0.00 0.00

Powered by AerisWeather